Overview Statistics Trail Chart Weather Telemetry Raw packets
 

This is the latest recevied weather packets stored in our database for station/object WA6OOO. If no packets are shown the sender has not sent any weather packets the latest 10 day(s).

<< 17 18 19 20 21 22 23 >>
Time Temp. Humidity Pressure Rain* Wind** Luminosity Snow
1788561105 24.44° C 65% 1016.6 hPa 0 mm - 488 W/m² -
1788560801 23.89° C 66% 1016.3 hPa 0 mm - 502 W/m² -
1788560497 24.44° C 66% 1016.5 hPa 0 mm - 512 W/m² -
1788560191 24.44° C 65% 1016.6 hPa 0 mm - 526 W/m² -
1788559891 24.44° C 65% 1016.6 hPa 0 mm - 539 W/m² -
1788559586 23.89° C 65% 1016.5 hPa 0 mm - 540 W/m² -
1788559281 24.44° C 67% 1016.5 hPa 0 mm - 563 W/m² -
1788558975 24.44° C 67% 1016.6 hPa 0 mm - 567 W/m² -
1788558672 24.44° C 67% 1016.6 hPa 0 mm - 576 W/m² -
1788558366 24.44° C 64% 1016.4 hPa 0 mm - 591 W/m² -
1788558062 25° C 63% 1016.4 hPa 0 mm - 599 W/m² -
1788557760 24.44° C 64% 1016.5 hPa 0 mm - 609 W/m² -
1788557457 24.44° C 65% 1016.6 hPa 0 mm - 617 W/m² -
1788557156 24.44° C 65% 1016.5 hPa 0 mm - 627 W/m² -
1788556851 24.44° C 65% 1016.6 hPa 0 mm - 639 W/m² -
1788556551 25° C 64% 1016.6 hPa 0 mm - 642 W/m² -
1788556247 25° C 64% 1016.7 hPa 0 mm - 653 W/m² -
1788555945 24.44° C 65% 1016.6 hPa 0 mm - 659 W/m² -
1788555643 24.44° C 66% 1016.6 hPa 0 mm - 667 W/m² -
1788555343 24.44° C 66% 1016.9 hPa 0 mm - 669 W/m² -
1788555039 24.44° C 67% 1016.7 hPa 0 mm - 679 W/m² -
1788554736 24.44° C 67% 1016.8 hPa 0 mm - 687 W/m² -
1788554431 24.44° C 66% 1016.8 hPa 0 mm - 692 W/m² -
1788554127 25° C 65% 1016.9 hPa 0 mm - 696 W/m² -
1788553823 25° C 66% 1016.8 hPa 0 mm - 698 W/m² -

* Rain latest hour (hover to see other rain measurements)
** Current wind speed in m/s (hover to see current wind gust speed)